Вернуться в каталог

COSMOS 2251 DEB

АктивенLEO
NORAD 47073·DEBRIS·🇷🇺 Russia

Запущен Jun 16, 1993 с Plesetsk Cosmodrome

Loading…

Ближайшие Пролёты (ближайшие 24 часа)

TLE

УстаревшееSource: Space-Track

Эпоха: Aug 16, 2026, 10:59 UTC

1 47073U 93036BYD 26228.45814955  .00000348  00000-0  20486-3 0  9991
2 47073  74.0832 132.4380 0160353 110.9689 250.8690 14.05141773638268

Отслеживайте COSMOS 2251 DEB в реальном времени с AllMySat

Download on the App Store